Emporia, VA

9:17 AM EST on December 12, 2017 (GMT -0500)
Emporia-Greensville Regional

Weather History for KEMV - November, 2013

Change the Weather History Date:

Tuesday, November 5, 2013

  Actual Average Record
Temperature  
Mean Temperature 47 °F -  
Max Temperature 59 °F 66 °F 82 °F (2003)
Min Temperature 35 °F 39 °F 25 °F (1991)
Degree Days  
Heating Degree Days 18    
Moisture  
Dew Point 42 °F    
Average Humidity 79    
Maximum Humidity 88    
Minimum Humidity 63    
Precipitation  
Precipitation 0.00 in - - ()
Sea Level Pressure  
Sea Level Pressure 30.52 in    
Wind  
Wind Speed 6 mph (North)    
Max Wind Speed 9 mph    
Max Gust Speed -    
Visibility 10 miles    
Events      
Averages and records for this station are not official NWS values.
T = Trace of Precipitation, MM = Missing Value Source: NWS Daily Summary

Daily Weather History Graph

Daily Weather History Graph

Search for Another Location

Airport or City:

Trip Planner

Search our weather history database for the weather conditions in past years. The results will help you decide how hot, cold, wet, or windy it might be!

Date:

Astronomy

Nov. 05, 2013 Rise Set
Actual Time 6:37 AM EST 5:08 PM EST
Civil Twilight 6:10 AM EST 5:35 PM EST
Nautical Twilight 5:40 AM EST 6:06 PM EST
Astronomical Twilight 5:09 AM EST 6:36 PM EST
Moon 8:48 AM EST (11/5) 7:10 PM EST (11/5)
Length of Visible Light 11h 25m
Length of Day
10h 31m
Waxing Crescent, 6% of the Moon is Illuminated
Nov 5
Waxing Crescent
Nov 10
First Quarter
Nov 17
Full
Nov 25
Last Quarter
Dec 2
New

Hourly Weather History & Observations

Time (EST) Temp. Windchill Dew Point Humidity Pressure Visibility Wind Dir Wind Speed Gust Speed Precip Events Conditions
12:15 AM 37.4 °F 32.8 °F 32.0 °F 81% 30.56 in 10.0 mi North 5.8 mph - N/A   Clear
12:35 AM 37.4 °F 32.8 °F 32.0 °F 81% 30.56 in 10.0 mi NNW 5.8 mph - N/A   Clear
12:55 AM 37.4 °F 33.8 °F 32.0 °F 81% 30.55 in 10.0 mi North 4.6 mph - N/A   Clear
1:15 AM 37.4 °F 33.8 °F 32.0 °F 81% 30.56 in 10.0 mi NNW 4.6 mph - N/A   Clear
1:35 AM 35.6 °F 30.7 °F 32.0 °F 87% 30.55 in 10.0 mi NNW 5.8 mph - N/A   Clear
1:55 AM 35.6 °F 29.9 °F 32.0 °F 87% 30.55 in 10.0 mi NW 6.9 mph - N/A   Clear
2:15 AM 37.4 °F 32.8 °F 33.8 °F 87% 30.54 in 10.0 mi NW 5.8 mph - N/A   Clear
2:35 AM 37.4 °F 31.4 °F 33.8 °F 87% 30.55 in 10.0 mi NW 8.1 mph - N/A   Clear
2:55 AM 37.4 °F 31.4 °F 33.8 °F 87% 30.55 in 10.0 mi NW 8.1 mph - N/A   Clear
3:15 AM 37.4 °F 32.8 °F 33.8 °F 87% 30.55 in 10.0 mi NNW 5.8 mph - N/A   Clear
3:35 AM 37.4 °F 32.8 °F 33.8 °F 87% 30.55 in 10.0 mi NNW 5.8 mph - N/A   Mostly Cloudy
3:55 AM 39.2 °F 35.0 °F 33.8 °F 81% 30.54 in 10.0 mi NNW 5.8 mph - N/A   Mostly Cloudy
4:15 AM 39.2 °F 35.0 °F 33.8 °F 81% 30.54 in 10.0 mi NW 5.8 mph - N/A   Clear
4:35 AM 37.4 °F 32.8 °F 33.8 °F 87% 30.53 in 10.0 mi North 5.8 mph - N/A   Clear
4:55 AM 37.4 °F 32.1 °F 33.8 °F 87% 30.54 in 10.0 mi NW 6.9 mph - N/A   Clear
5:15 AM 37.4 °F 32.1 °F 33.8 °F 87% 30.54 in 10.0 mi NNW 6.9 mph - N/A   Clear
5:35 AM 39.2 °F 33.0 °F 35.6 °F 87% 30.55 in 10.0 mi NW 9.2 mph - N/A   Mostly Cloudy
5:55 AM 41.0 °F 36.4 °F 35.6 °F 81% 30.54 in 10.0 mi NNW 6.9 mph - N/A   Overcast
6:15 AM 41.0 °F 35.8 °F 35.6 °F 81% 30.55 in 10.0 mi NW 8.1 mph - N/A   Overcast
6:35 AM 41.0 °F 35.2 °F 35.6 °F 81% 30.56 in 10.0 mi NW 9.2 mph - N/A   Overcast
6:55 AM 41.0 °F 35.2 °F 35.6 °F 81% 30.57 in 10.0 mi NW 9.2 mph - N/A   Overcast
7:15 AM 41.0 °F 36.4 °F 35.6 °F 81% 30.56 in 10.0 mi NNW 6.9 mph - N/A   Overcast
7:35 AM 41.0 °F 36.4 °F 35.6 °F 81% 30.56 in 10.0 mi NNW 6.9 mph - N/A   Mostly Cloudy
7:55 AM 42.8 °F 37.5 °F 35.6 °F 76% 30.57 in 10.0 mi NW 9.2 mph - N/A   Scattered Clouds
8:15 AM 42.8 °F 38.6 °F 35.6 °F 76% 30.58 in 10.0 mi NNW 6.9 mph - N/A   Overcast
8:35 AM 42.8 °F 40.1 °F 37.4 °F 81% 30.57 in 10.0 mi NNW 4.6 mph - N/A   Overcast
8:55 AM 44.6 °F 40.7 °F 37.4 °F 76% 30.57 in 10.0 mi NNW 6.9 mph - N/A   Overcast
9:15 AM 46.4 °F 42.4 °F 39.2 °F 76% 30.56 in 10.0 mi NNW 8.1 mph - N/A   Overcast
9:35 AM 46.4 °F 42.9 °F 39.2 °F 76% 30.57 in 10.0 mi NNW 6.9 mph - N/A   Mostly Cloudy
9:55 AM 46.4 °F 42.9 °F 41.0 °F 81% 30.57 in 10.0 mi NNW 6.9 mph - N/A   Overcast
10:15 AM 50.0 °F - 41.0 °F 71% 30.57 in 10.0 mi NNW 8.1 mph - N/A   Overcast
10:35 AM 50.0 °F - 41.0 °F 71% 30.57 in 10.0 mi NW 8.1 mph - N/A   Overcast
10:55 AM 50.0 °F - 42.8 °F 76% 30.57 in 10.0 mi NNW 6.9 mph - N/A   Overcast
11:15 AM 51.8 °F - 42.8 °F 71% 30.57 in 10.0 mi NNW 6.9 mph - N/A   Overcast
11:35 AM 51.8 °F - 42.8 °F 71% 30.56 in 10.0 mi NW 8.1 mph - N/A   Overcast
11:55 AM 51.8 °F - 42.8 °F 71% 30.55 in 10.0 mi NNW 8.1 mph - N/A   Overcast
12:15 PM 53.6 °F - 44.6 °F 72% 30.53 in 10.0 mi NNW 5.8 mph - N/A   Overcast
12:35 PM 55.4 °F - 44.6 °F 67% 30.51 in 10.0 mi North 5.8 mph - N/A   Overcast
12:55 PM 55.4 °F - 46.4 °F 72% 30.51 in 10.0 mi NNW 5.8 mph - N/A   Overcast
1:15 PM 55.4 °F - 46.4 °F 72% 30.50 in 10.0 mi NNE 3.5 mph - N/A   Overcast
1:35 PM 59.0 °F - 46.4 °F 63% 30.50 in 10.0 mi NNE 6.9 mph - N/A   Overcast
1:55 PM 57.2 °F - 46.4 °F 67% 30.51 in 10.0 mi North 4.6 mph - N/A   Mostly Cloudy
2:15 PM 59.0 °F - 48.2 °F 67% 30.51 in 10.0 mi NNE 5.8 mph - N/A   Overcast
2:35 PM 59.0 °F - 48.2 °F 67% 30.50 in 10.0 mi NE 5.8 mph - N/A   Overcast
2:55 PM 59.0 °F - 48.2 °F 67% 30.49 in 10.0 mi NNE 8.1 mph - N/A   Overcast
3:15 PM 59.0 °F - 50.0 °F 72% 30.48 in 10.0 mi NNE 5.8 mph - N/A   Overcast
3:35 PM 59.0 °F - 50.0 °F 72% 30.48 in 10.0 mi Calm Calm - N/A   Overcast
3:55 PM 59.0 °F - 50.0 °F 72% 30.48 in 10.0 mi NNW 4.6 mph - N/A   Overcast
4:15 PM 59.0 °F - 50.0 °F 72% 30.49 in 10.0 mi NNW 4.6 mph - N/A   Overcast
4:35 PM 59.0 °F - 50.0 °F 72% 30.49 in 10.0 mi NNW 3.5 mph - N/A   Overcast
4:55 PM 57.2 °F - 50.0 °F 77% 30.49 in 10.0 mi NNW 3.5 mph - N/A   Overcast
5:15 PM 57.2 °F - 50.0 °F 77% 30.49 in 10.0 mi North 4.6 mph - N/A   Overcast
5:35 PM 55.4 °F - 50.0 °F 82% 30.49 in 10.0 mi NNE 4.6 mph - N/A   Overcast
5:55 PM 55.4 °F - 48.2 °F 77% 30.50 in 10.0 mi NNE 6.9 mph - N/A   Overcast
6:15 PM 55.4 °F - 46.4 °F 72% 30.49 in 10.0 mi NNE 4.6 mph - N/A   Overcast
6:35 PM 55.4 °F - 48.2 °F 77% 30.49 in 10.0 mi NNE 3.5 mph - N/A   Overcast
6:55 PM 55.4 °F - 48.2 °F 77% 30.49 in 10.0 mi ENE 3.5 mph - N/A   Overcast
7:15 PM 53.6 °F - 48.2 °F 82% 30.49 in 10.0 mi NNE 3.5 mph - N/A   Overcast
7:35 PM 53.6 °F - 48.2 °F 82% 30.50 in 10.0 mi NNE 3.5 mph - N/A   Overcast
7:55 PM 53.6 °F - 48.2 °F 82% 30.50 in 10.0 mi NNE 3.5 mph - N/A   Overcast
8:15 PM 53.6 °F - 46.4 °F 77% 30.49 in 10.0 mi Calm Calm - N/A   Mostly Cloudy
8:35 PM 51.8 °F - 46.4 °F 82% 30.50 in 10.0 mi NNE 3.5 mph - N/A   Clear
8:55 PM 51.8 °F - 46.4 °F 82% 30.50 in 10.0 mi Calm Calm - N/A   Clear
9:15 PM 51.8 °F - 48.2 °F 88% 30.49 in 10.0 mi NNE 3.5 mph - N/A   Mostly Cloudy
9:35 PM 51.8 °F - 48.2 °F 88% 30.49 in 10.0 mi NNE 3.5 mph - N/A   Overcast
9:55 PM 51.8 °F - 48.2 °F 88% 30.48 in 10.0 mi NE 3.5 mph - N/A   Overcast
10:15 PM 51.8 °F - 48.2 °F 88% 30.48 in 10.0 mi Calm Calm - N/A   Overcast
10:35 PM 53.6 °F - 48.2 °F 82% 30.48 in 10.0 mi Calm Calm - N/A   Overcast
10:55 PM 51.8 °F - 48.2 °F 88% 30.47 in 10.0 mi NNE 4.6 mph - N/A   Overcast
11:15 PM 51.8 °F - 48.2 °F 88% 30.47 in 10.0 mi ENE 4.6 mph - N/A   Overcast
11:35 PM 53.6 °F - 48.2 °F 82% 30.47 in 10.0 mi Calm Calm - N/A   Overcast
11:55 PM 51.8 °F - 48.2 °F 88% 30.46 in 10.0 mi Calm Calm - N/A   Overcast